| time (UTC) | temp F | wind direction | speed MPH | gust MPH | rain 1hr in | rain 24hr in | rain mn in | humidity % | barometer mb |
| 20260904010904 | 96 | 175 | 0.0 | 0.0 | 0.00 | 0.00 | 0.00 | 33 | 1005.2 |
| 20260904010404 | 97 | 175 | 0.0 | 0.0 | 0.00 | 0.00 | 0.00 | 33 | 1005.2 |
| 20260904005903 | 97 | 175 | 0.0 | 0.0 | 0.00 | 0.00 | 0.00 | 33 | 1005.3 |
| 20260904005404 | 97 | 175 | 0.0 | 0.0 | 0.00 | 0.00 | 0.00 | 33 | 1005.3 |
| 20260904004904 | 98 | 175 | 0.0 | 0.0 | 0.00 | 0.00 | 0.00 | 33 | 1005.3 |
| 20260904003904 | 98 | 175 | 0.0 | 0.0 | 0.00 | 0.00 | 0.00 | 33 | 1005.3 |
| 20260904003404 | 97 | 175 | 0.0 | 0.0 | 0.00 | 0.00 | 0.00 | 33 | 1005.3 |
| 20260904002404 | 97 | 175 | 0.0 | 6.0 | 0.00 | 0.00 | 0.00 | 33 | 1005.3 |
| 20260904001903 | 97 | 175 | 0.0 | 0.0 | 0.00 | 0.00 | 0.00 | 33 | 1005.4 |
| 20260904001404 | 97 | 175 | 0.0 | 0.0 | 0.00 | 0.00 | 0.00 | 33 | 1005.4 |
| 20260904000904 | 97 | 175 | 0.0 | 0.0 | 0.00 | 0.00 | 0.00 | 33 | 1005.4 |
| 20260903235903 | 98 | 175 | 0.0 | 0.0 | 0.00 | 0.00 | 0.00 | 33 | 1005.4 |
| 20260903235403 | 97 | 175 | 0.0 | 0.0 | 0.00 | 0.00 | 0.00 | 33 | 1005.5 |
| 20260903234904 | 97 | 174 | 0.0 | 1.0 | 0.00 | 0.00 | 0.00 | 33 | 1005.5 |
| 20260903234404 | 98 | 173 | 0.0 | 0.0 | 0.00 | 0.00 | 0.00 | 33 | 1005.5 |
| 20260903233404 | 97 | 174 | 0.0 | 0.0 | 0.00 | 0.00 | 0.00 | 33 | 1005.7 |
| 20260903232903 | 98 | 175 | 0.0 | 0.0 | 0.00 | 0.00 | 0.00 | 32 | 1005.6 |
| 20260903232404 | 98 | 175 | 0.0 | 0.0 | 0.00 | 0.00 | 0.00 | 32 | 1005.7 |
| 20260903231904 | 99 | 174 | 0.0 | 3.0 | 0.00 | 0.00 | 0.00 | 32 | 1005.8 |
| 20260903231404 | 99 | 180 | 0.0 | 3.0 | 0.00 | 0.00 | 0.00 | 32 | 1005.7 |
| 20260903230904 | 99 | 235 | 0.0 | 6.0 | 0.00 | 0.00 | 0.00 | 32 | 1005.7 |
| 20260903230404 | 100 | 247 | 0.0 | 0.0 | 0.00 | 0.00 | 0.00 | 32 | 1005.7 |
| 20260903225904 | 99 | 248 | 0.0 | 0.0 | 0.00 | 0.00 | 0.00 | 32 | 1005.7 |
| 20260903225403 | 100 | 247 | 0.0 | 0.0 | 0.00 | 0.00 | 0.00 | 32 | 1005.8 |
| 20260903224904 | 99 | 248 | 0.0 | 0.0 | 0.00 | 0.00 | 0.00 | 32 | 1005.9 |
| 20260903223925 | 99 | 247 | 0.0 | 0.0 | 0.00 | 0.00 | 0.00 | 32 | 1006.0 |
| 20260903223404 | 99 | 248 | 0.0 | 0.0 | 0.00 | 0.00 | 0.00 | 32 | 1006.1 |
| 20260903222932 | 98 | 250 | 0.0 | 0.0 | 0.00 | 0.00 | 0.00 | 32 | 1006.1 |
| 20260903222403 | 98 | 250 | 0.0 | 0.0 | 0.00 | 0.00 | 0.00 | 32 | 1006.2 |
| 20260903221903 | 98 | 228 | 0.0 | 0.0 | 0.00 | 0.00 | 0.00 | 32 | 1006.4 |
| 20260903220403 | 98 | 164 | 0.0 | 3.0 | 0.00 | 0.00 | 0.00 | 34 | 1006.5 |
| 20260903215904 | 97 | 165 | 0.0 | 9.0 | 0.00 | 0.00 | 0.00 | 34 | 1006.5 |
| 20260903215404 | 97 | 166 | 1.0 | 7.0 | 0.00 | 0.00 | 0.00 | 34 | 1006.6 |
| 20260903214903 | 97 | 162 | 0.0 | 5.0 | 0.00 | 0.00 | 0.00 | 34 | 1006.7 |
| 20260903214403 | 96 | 163 | 0.0 | 0.0 | 0.00 | 0.00 | 0.00 | 34 | 1006.8 |
| 20260903213404 | 96 | 163 | 0.0 | 10.0 | 0.00 | 0.00 | 0.00 | 34 | 1007.1 |
| 20260903212903 | 97 | 209 | 0.0 | 6.0 | 0.00 | 0.00 | 0.00 | 34 | 1007.1 |
| 20260903212404 | 97 | 218 | 0.0 | 1.0 | 0.00 | 0.00 | 0.00 | 34 | 1007.3 |
| 20260903211904 | 97 | 219 | 0.0 | 2.0 | 0.00 | 0.00 | 0.00 | 34 | 1007.3 |
| 20260903211404 | 97 | 217 | 0.0 | 0.0 | 0.00 | 0.00 | 0.00 | 34 | 1007.4 |
| 20260903210904 | 97 | 184 | 0.0 | 1.0 | 0.00 | 0.00 | 0.00 | 34 | 1007.5 |
| 20260903210403 | 97 | 178 | 0.0 | 1.0 | 0.00 | 0.00 | 0.00 | 34 | 1007.5 |
| 20260903205406 | 97 | 176 | 0.0 | 2.0 | 0.00 | 0.00 | 0.00 | 34 | 1007.8 |
| 20260903204905 | 97 | 176 | 0.0 | 5.0 | 0.00 | 0.00 | 0.00 | 34 | 1007.9 |
| 20260903204405 | 97 | 171 | 1.0 | 7.0 | 0.00 | 0.00 | 0.00 | 33 | 1008.0 |
| 20260903203405 | 97 | 178 | 0.0 | 5.0 | 0.00 | 0.00 | 0.00 | 33 | 1008.1 |
| 20260903202905 | 98 | 218 | 0.0 | 1.0 | 0.00 | 0.00 | 0.00 | 33 | 1008.0 |
| 20260903202405 | 98 | 179 | 0.0 | 3.0 | 0.00 | 0.00 | 0.00 | 34 | 1008.1 |
| 20260903201905 | 97 | 197 | 0.0 | 0.0 | 0.00 | 0.00 | 0.00 | 34 | 1008.2 |
| 20260903201405 | 97 | 196 | 0.0 | 6.0 | 0.00 | 0.00 | 0.00 | 34 | 1008.3 |
| 20260903200905 | 96 | 209 | 0.0 | 2.0 | 0.00 | 0.00 | 0.00 | 33 | 1008.3 |
| 20260903200405 | 97 | 176 | 0.0 | 0.0 | 0.00 | 0.00 | 0.00 | 34 | 1008.4 |
| 20260903195905 | 96 | 174 | 0.0 | 2.0 | 0.00 | 0.00 | 0.00 | 34 | 1008.2 |
| 20260903194905 | 96 | 180 | 0.0 | 3.0 | 0.00 | 0.00 | 0.00 | 34 | 1008.4 |
| 20260903194404 | 96 | 178 | 0.0 | 5.0 | 0.00 | 0.00 | 0.00 | 35 | 1008.5 |
| 20260903193904 | 96 | 183 | 0.0 | 5.0 | 0.00 | 0.00 | 0.00 | 36 | 1008.4 |
| 20260903193405 | 96 | 171 | 0.0 | 3.0 | 0.00 | 0.00 | 0.00 | 37 | 1008.4 |
| 20260903192905 | 95 | 172 | 0.0 | 0.0 | 0.00 | 0.00 | 0.00 | 38 | 1008.6 |
| 20260903192405 | 95 | 171 | 2.0 | 12.0 | 0.00 | 0.00 | 0.00 | 38 | 1008.8 |
| 20260903191905 | 95 | 172 | 0.0 | 0.0 | 0.00 | 0.00 | 0.00 | 38 | 1008.8 |
| 20260903191404 | 95 | 163 | 0.0 | 1.0 | 0.00 | 0.00 | 0.00 | 38 | 1008.8 |
| 20260903190405 | 95 | 161 | 0.0 | 0.0 | 0.00 | 0.00 | 0.00 | 39 | 1009.1 |
| 20260903185905 | 95 | 162 | 0.0 | 1.0 | 0.00 | 0.00 | 0.00 | 39 | 1009.0 |
| 20260903185404 | 95 | 162 | 0.0 | 3.0 | 0.00 | 0.00 | 0.00 | 40 | 1009.2 |
| 20260903184905 | 95 | 150 | 1.0 | 6.0 | 0.00 | 0.00 | 0.00 | 40 | 1009.3 |
| 20260903184404 | 95 | 168 | 0.0 | 1.0 | 0.00 | 0.00 | 0.00 | 41 | 1009.4 |
| 20260903183905 | 94 | 171 | 1.0 | 9.0 | 0.00 | 0.00 | 0.00 | 42 | 1009.5 |
| 20260903183405 | 94 | 185 | 0.0 | 2.0 | 0.00 | 0.00 | 0.00 | 41 | 1009.7 |
| 20260903182905 | 94 | 185 | 0.0 | 8.0 | 0.00 | 0.00 | 0.00 | 42 | 1009.8 |
| 20260903182405 | 94 | 163 | 2.0 | 7.0 | 0.00 | 0.00 | 0.00 | 41 | 1009.8 |
| 20260903181905 | 93 | 156 | 0.0 | 0.0 | 0.00 | 0.00 | 0.00 | 43 | 1009.8 |
| 20260903181405 | 94 | 155 | 0.0 | 7.0 | 0.00 | 0.00 | 0.00 | 42 | 1009.9 |
| 20260903180905 | 93 | 130 | 0.0 | 3.0 | 0.00 | 0.00 | 0.00 | 44 | 1010.0 |
| 20260903180405 | 92 | 129 | 0.0 | 3.0 | 0.00 | 0.00 | 0.00 | 44 | 1010.2 |
| 20260903175905 | 92 | 149 | 0.0 | 3.0 | 0.00 | 0.00 | 0.00 | 44 | 1010.3 |
| 20260903175404 | 93 | 185 | 0.0 | 3.0 | 0.00 | 0.00 | 0.00 | 44 | 1010.4 |
| 20260903174405 | 92 | 185 | 0.0 | 1.0 | 0.00 | 0.00 | 0.00 | 45 | 1010.4 |
| 20260903173405 | 92 | 193 | 0.0 | 7.0 | 0.00 | 0.00 | 0.00 | 45 | 1010.5 |
| 20260903172905 | 91 | 231 | 0.0 | 0.0 | 0.00 | 0.00 | 0.00 | 45 | 1010.6 |
| 20260903172404 | 92 | 233 | 0.0 | 3.0 | 0.00 | 0.00 | 0.00 | 44 | 1010.6 |
| 20260903171405 | 92 | 247 | 0.0 | 0.0 | 0.00 | 0.00 | 0.00 | 45 | 1010.5 |
| 20260903170404 | 91 | 248 | 0.0 | 0.0 | 0.00 | 0.00 | 0.00 | 47 | 1010.7 |
| 20260903165905 | 92 | 248 | 0.0 | 0.0 | 0.00 | 0.00 | 0.00 | 46 | 1010.4 |
| 20260903165405 | 92 | 247 | 0.0 | 0.0 | 0.00 | 0.00 | 0.00 | 46 | 1010.4 |
| 20260903164904 | 91 | 247 | 0.0 | 0.0 | 0.00 | 0.00 | 0.00 | 47 | 1010.4 |
| 20260903163405 | 89 | 247 | 0.0 | 0.0 | 0.00 | 0.00 | 0.00 | 48 | 1010.6 |
| 20260903162905 | 89 | 247 | 0.0 | 0.0 | 0.00 | 0.00 | 0.00 | 49 | 1010.6 |
| 20260903162405 | 89 | 247 | 0.0 | 0.0 | 0.00 | 0.00 | 0.00 | 48 | 1010.7 |
| 20260903161904 | 89 | 247 | 0.0 | 0.0 | 0.00 | 0.00 | 0.00 | 49 | 1010.6 |
| 20260903161405 | 88 | 247 | 0.0 | 0.0 | 0.00 | 0.00 | 0.00 | 50 | 1010.8 |
| 20260903160905 | 88 | 247 | 0.0 | 0.0 | 0.00 | 0.00 | 0.00 | 51 | 1010.7 |
| 20260903155905 | 87 | 246 | 0.0 | 0.0 | 0.00 | 0.00 | 0.00 | 52 | 1010.7 |
| 20260903155404 | 86 | 247 | 0.0 | 0.0 | 0.00 | 0.00 | 0.00 | 52 | 1010.7 |
| 20260903154905 | 86 | 247 | 0.0 | 0.0 | 0.00 | 0.00 | 0.00 | 52 | 1010.7 |
| 20260903153905 | 87 | 220 | 0.0 | 0.0 | 0.00 | 0.00 | 0.00 | 51 | 1010.7 |
| 20260903153405 | 87 | 220 | 0.0 | 0.0 | 0.00 | 0.00 | 0.00 | 52 | 1010.8 |
| 20260903152905 | 87 | 220 | 0.0 | 0.0 | 0.00 | 0.00 | 0.00 | 53 | 1010.8 |
| 20260903152405 | 87 | 220 | 0.0 | 0.0 | 0.00 | 0.00 | 0.00 | 53 | 1010.8 |
| 20260903151905 | 86 | 220 | 0.0 | 0.0 | 0.00 | 0.00 | 0.00 | 53 | 1010.8 |
| 20260903151404 | 86 | 220 | 0.0 | 0.0 | 0.00 | 0.00 | 0.00 | 56 | 1010.8 |
| 20260903150405 | 85 | 220 | 0.0 | 0.0 | 0.00 | 0.00 | 0.00 | 57 | 1010.9 |
| 20260903145905 | 85 | 220 | 0.0 | 0.0 | 0.00 | 0.00 | 0.00 | 58 | 1010.8 |
| 20260903145405 | 85 | 220 | 0.0 | 0.0 | 0.00 | 0.00 | 0.00 | 58 | 1010.8 |
| 20260903144404 | 85 | 220 | 0.0 | 0.0 | 0.00 | 0.00 | 0.00 | 59 | 1010.7 |
| 20260903143905 | 85 | 220 | 0.0 | 0.0 | 0.00 | 0.00 | 0.00 | 59 | 1010.7 |
| 20260903143405 | 85 | 220 | 0.0 | 0.0 | 0.00 | 0.00 | 0.00 | 59 | 1010.8 |
| 20260903142405 | 84 | 220 | 0.0 | 0.0 | 0.00 | 0.00 | 0.00 | 60 | 1010.8 |
| 20260903141904 | 84 | 220 | 0.0 | 0.0 | 0.00 | 0.00 | 0.00 | 60 | 1010.8 |
| 20260903141405 | 84 | 220 | 0.0 | 0.0 | 0.00 | 0.00 | 0.00 | 60 | 1010.7 |
| 20260903140905 | 83 | 220 | 0.0 | 0.0 | 0.00 | 0.00 | 0.00 | 60 | 1010.6 |
| 20260903140404 | 83 | 220 | 0.0 | 0.0 | 0.00 | 0.00 | 0.00 | 60 | 1010.5 |
| 20260903135905 | 83 | 220 | 0.0 | 0.0 | 0.00 | 0.00 | 0.00 | 61 | 1010.5 |
| 20260903135404 | 82 | 220 | 0.0 | 0.0 | 0.00 | 0.00 | 0.00 | 61 | 1010.4 |
| 20260903134405 | 82 | 220 | 0.0 | 0.0 | 0.00 | 0.00 | 0.00 | 62 | 1010.3 |
| 20260903133905 | 82 | 220 | 0.0 | 0.0 | 0.00 | 0.00 | 0.00 | 62 | 1010.3 |
| 20260903133404 | 82 | 220 | 0.0 | 0.0 | 0.00 | 0.00 | 0.00 | 62 | 1010.3 |
| 20260903132904 | 81 | 220 | 0.0 | 0.0 | 0.00 | 0.00 | 0.00 | 62 | 1010.3 |
| 20260903132404 | 81 | 220 | 0.0 | 0.0 | 0.00 | 0.00 | 0.00 | 62 | 1010.1 |
| 20260903131904 | 81 | 220 | 0.0 | 0.0 | 0.00 | 0.00 | 0.00 | 62 | 1010.1 |
| 20260903130904 | 81 | 220 | 0.0 | 0.0 | 0.00 | 0.00 | 0.00 | 62 | 1010.1 |
| 20260903130405 | 81 | 220 | 0.0 | 0.0 | 0.00 | 0.00 | 0.00 | 62 | 1010.1 |
| 20260903125905 | 81 | 220 | 0.0 | 0.0 | 0.00 | 0.00 | 0.00 | 62 | 1010.0 |
| 20260903125405 | 81 | 220 | 0.0 | 0.0 | 0.00 | 0.00 | 0.00 | 62 | 1009.9 |
| 20260903124905 | 81 | 220 | 0.0 | 0.0 | 0.00 | 0.00 | 0.00 | 62 | 1009.8 |
| 20260903124404 | 81 | 220 | 0.0 | 0.0 | 0.00 | 0.00 | 0.00 | 62 | 1009.7 |
| 20260903123905 | 81 | 220 | 0.0 | 0.0 | 0.00 | 0.00 | 0.00 | 62 | 1009.6 |
| 20260903123404 | 82 | 220 | 0.0 | 0.0 | 0.00 | 0.00 | 0.00 | 61 | 1009.6 |
| 20260903122905 | 82 | 220 | 0.0 | 0.0 | 0.00 | 0.00 | 0.00 | 61 | 1009.5 |
| 20260903122404 | 82 | 220 | 0.0 | 0.0 | 0.00 | 0.00 | 0.00 | 61 | 1009.4 |
| 20260903121904 | 82 | 220 | 0.0 | 0.0 | 0.00 | 0.00 | 0.00 | 61 | 1009.4 |
| 20260903121404 | 82 | 220 | 0.0 | 0.0 | 0.00 | 0.00 | 0.00 | 61 | 1009.3 |
| 20260903120904 | 82 | 220 | 0.0 | 0.0 | 0.00 | 0.00 | 0.00 | 60 | 1009.3 |
| 20260903120405 | 82 | 220 | 0.0 | 0.0 | 0.00 | 0.00 | 0.00 | 60 | 1009.2 |
| 20260903115904 | 83 | 220 | 0.0 | 0.0 | 0.00 | 0.00 | 0.00 | 59 | 1009.2 |
| 20260903115405 | 83 | 219 | 0.0 | 0.0 | 0.00 | 0.00 | 0.00 | 59 | 1009.1 |
| 20260903114904 | 83 | 219 | 0.0 | 0.0 | 0.00 | 0.00 | 0.00 | 58 | 1009.1 |
| 20260903114405 | 83 | 220 | 0.0 | 0.0 | 0.00 | 0.00 | 0.00 | 58 | 1009.1 |
| 20260903113905 | 83 | 220 | 0.0 | 0.0 | 0.00 | 0.00 | 0.00 | 58 | 1009.0 |
| 20260903113404 | 83 | 220 | 0.0 | 0.0 | 0.00 | 0.00 | 0.00 | 57 | 1008.9 |
| 20260903112404 | 84 | 220 | 0.0 | 0.0 | 0.00 | 0.00 | 0.00 | 57 | 1008.9 |
| 20260903111904 | 84 | 219 | 0.0 | 0.0 | 0.00 | 0.00 | 0.00 | 56 | 1008.9 |
| 20260903111405 | 84 | 214 | 0.0 | 0.0 | 0.00 | 0.00 | 0.00 | 56 | 1008.9 |
| 20260903110905 | 84 | 210 | 0.0 | 0.0 | 0.00 | 0.00 | 0.00 | 55 | 1008.8 |
| 20260903110405 | 84 | 209 | 0.0 | 0.0 | 0.00 | 0.00 | 0.00 | 55 | 1008.9 |
| 20260903105905 | 84 | 210 | 0.0 | 0.0 | 0.00 | 0.00 | 0.00 | 55 | 1008.9 |
| 20260903105404 | 84 | 209 | 0.0 | 0.0 | 0.00 | 0.00 | 0.00 | 54 | 1008.9 |
| 20260903104904 | 84 | 209 | 0.0 | 0.0 | 0.00 | 0.00 | 0.00 | 54 | 1008.9 |
| 20260903103904 | 85 | 207 | 0.0 | 0.0 | 0.00 | 0.00 | 0.00 | 53 | 1008.8 |
| 20260903103405 | 85 | 206 | 0.0 | 0.0 | 0.00 | 0.00 | 0.00 | 52 | 1008.8 |
| 20260903102904 | 85 | 206 | 0.0 | 0.0 | 0.00 | 0.00 | 0.00 | 51 | 1008.7 |
| 20260903100904 | 85 | 208 | 0.0 | 1.0 | 0.00 | 0.00 | 0.00 | 49 | 1009.0 |
| 20260903100405 | 85 | 211 | 0.0 | 0.0 | 0.00 | 0.00 | 0.00 | 48 | 1008.9 |
| 20260903095904 | 85 | 210 | 0.0 | 0.0 | 0.00 | 0.00 | 0.00 | 46 | 1008.9 |
| 20260903095405 | 85 | 221 | 0.0 | 0.0 | 0.00 | 0.00 | 0.00 | 44 | 1009.0 |
| 20260903094904 | 85 | 216 | 0.0 | 0.0 | 0.00 | 0.00 | 0.00 | 39 | 1009.1 |
| 20260903094405 | 85 | 217 | 0.0 | 0.0 | 0.00 | 0.00 | 0.00 | 39 | 1009.1 |
| 20260903093904 | 84 | 217 | 0.0 | 0.0 | 0.00 | 0.00 | 0.00 | 35 | 1009.2 |
| 20260903093405 | 84 | 217 | 0.0 | 0.0 | 0.00 | 0.00 | 0.00 | 35 | 1009.3 |
| 20260903092904 | 84 | 217 | 0.0 | 0.0 | 0.00 | 0.00 | 0.00 | 35 | 1009.2 |
| 20260903092404 | 83 | 217 | 0.0 | 0.0 | 0.00 | 0.00 | 0.00 | 35 | 1009.1 |
| 20260903091905 | 83 | 217 | 0.0 | 0.0 | 0.00 | 0.00 | 0.00 | 37 | 1009.1 |
| 20260903091404 | 83 | 217 | 0.0 | 0.0 | 0.00 | 0.00 | 0.00 | 38 | 1009.1 |
| 20260903090905 | 83 | 216 | 0.0 | 0.0 | 0.00 | 0.00 | 0.00 | 39 | 1009.1 |
| 20260903085905 | 82 | 217 | 0.0 | 0.0 | 0.00 | 0.00 | 0.00 | 39 | 1009.1 |
| 20260903085404 | 83 | 217 | 0.0 | 0.0 | 0.00 | 0.00 | 0.00 | 37 | 1009.0 |
| 20260903084904 | 83 | 217 | 0.0 | 0.0 | 0.00 | 0.00 | 0.00 | 37 | 1009.0 |
| 20260903083904 | 83 | 216 | 0.0 | 0.0 | 0.00 | 0.00 | 0.00 | 35 | 1009.0 |
| 20260903083404 | 83 | 216 | 0.0 | 0.0 | 0.00 | 0.00 | 0.00 | 35 | 1009.0 |
| 20260903082904 | 84 | 217 | 0.0 | 0.0 | 0.00 | 0.00 | 0.00 | 35 | 1009.0 |
| 20260903081904 | 85 | 217 | 0.0 | 0.0 | 0.00 | 0.00 | 0.00 | 33 | 1008.9 |
| 20260903081405 | 85 | 217 | 0.0 | 0.0 | 0.00 | 0.00 | 0.00 | 33 | 1008.9 |
| 20260903080904 | 86 | 216 | 0.0 | 0.0 | 0.00 | 0.00 | 0.00 | 32 | 1008.8 |
| 20260903080405 | 86 | 216 | 0.0 | 0.0 | 0.00 | 0.00 | 0.00 | 32 | 1008.8 |
| 20260903075905 | 87 | 217 | 0.0 | 0.0 | 0.00 | 0.00 | 0.00 | 31 | 1008.8 |
| 20260903075405 | 87 | 217 | 0.0 | 0.0 | 0.00 | 0.00 | 0.00 | 31 | 1008.8 |
| 20260903074905 | 88 | 216 | 0.0 | 0.0 | 0.00 | 0.00 | 0.00 | 31 | 1008.8 |
| 20260903074404 | 89 | 217 | 0.0 | 0.0 | 0.00 | 0.00 | 0.00 | 29 | 1008.7 |
| 20260903073405 | 89 | 217 | 0.0 | 0.0 | 0.00 | 0.00 | 0.00 | 30 | 1008.7 |
| 20260903072404 | 89 | 217 | 0.0 | 0.0 | 0.00 | 0.00 | 0.00 | 29 | 1008.7 |
| 20260903071405 | 89 | 217 | 0.0 | 0.0 | 0.00 | 0.00 | 0.00 | 29 | 1008.7 |
| 20260903070904 | 89 | 217 | 0.0 | 0.0 | 0.00 | 0.00 | 0.00 | 29 | 1008.7 |
| 20260903070405 | 89 | 217 | 0.0 | 0.0 | 0.00 | 0.00 | 0.00 | 30 | 1008.6 |
| 20260903065404 | 89 | 217 | 0.0 | 0.0 | 0.00 | 0.00 | 0.00 | 29 | 1008.6 |
| 20260903064904 | 89 | 217 | 0.0 | 0.0 | 0.00 | 0.00 | 0.00 | 30 | 1008.6 |
| 20260903063904 | 89 | 217 | 0.0 | 0.0 | 0.00 | 0.00 | 0.00 | 32 | 1008.6 |
| 20260903063404 | 89 | 216 | 0.0 | 0.0 | 0.00 | 0.00 | 0.00 | 33 | 1008.6 |
| 20260903062905 | 88 | 217 | 0.0 | 0.0 | 0.00 | 0.00 | 0.00 | 33 | 1008.6 |
| 20260903062404 | 88 | 217 | 0.0 | 0.0 | 0.00 | 0.00 | 0.00 | 32 | 1008.5 |
| 20260903061905 | 87 | 217 | 0.0 | 0.0 | 0.00 | 0.00 | 0.00 | 37 | 1008.6 |
| 20260903061404 | 87 | 217 | 0.0 | 0.0 | 0.00 | 0.00 | 0.00 | 36 | 1008.6 |
| 20260903060904 | 87 | 216 | 0.0 | 0.0 | 0.00 | 0.00 | 0.00 | 36 | 1008.7 |
| 20260903060405 | 87 | 217 | 0.0 | 0.0 | 0.00 | 0.00 | 0.00 | 36 | 1008.6 |
| 20260903055904 | 88 | 217 | 0.0 | 0.0 | 0.00 | 0.00 | 0.00 | 38 | 1008.7 |
| 20260903055405 | 88 | 216 | 0.0 | 0.0 | 0.00 | 0.00 | 0.00 | 37 | 1008.7 |
| 20260903054404 | 89 | 217 | 0.0 | 0.0 | 0.00 | 0.00 | 0.00 | 38 | 1008.6 |
| 20260903053904 | 89 | 217 | 0.0 | 0.0 | 0.00 | 0.00 | 0.00 | 37 | 1008.6 |
| 20260903053405 | 90 | 217 | 0.0 | 0.0 | 0.00 | 0.00 | 0.00 | 37 | 1008.5 |
| 20260903052904 | 90 | 217 | 0.0 | 0.0 | 0.00 | 0.00 | 0.00 | 36 | 1008.5 |
| 20260903052405 | 91 | 217 | 0.0 | 0.0 | 0.00 | 0.00 | 0.00 | 36 | 1008.5 |
| 20260903051904 | 91 | 217 | 0.0 | 0.0 | 0.00 | 0.00 | 0.00 | 36 | 1008.5 |
| 20260903051405 | 91 | 217 | 0.0 | 0.0 | 0.00 | 0.00 | 0.00 | 36 | 1008.5 |
| 20260903050904 | 91 | 217 | 0.0 | 0.0 | 0.00 | 0.00 | 0.00 | 35 | 1008.5 |
| 20260903050405 | 91 | 217 | 0.0 | 0.0 | 0.00 | 0.00 | 0.00 | 35 | 1008.5 |
| 20260903045904 | 91 | 217 | 0.0 | 0.0 | 0.00 | 0.00 | 0.00 | 34 | 1008.6 |
| 20260903045404 | 91 | 217 | 0.0 | 0.0 | 0.00 | 0.00 | 0.00 | 34 | 1008.6 |
| 20260903044904 | 91 | 217 | 0.0 | 0.0 | 0.00 | 0.00 | 0.00 | 34 | 1008.6 |
| 20260903044404 | 91 | 217 | 0.0 | 0.0 | 0.00 | 0.00 | 0.00 | 34 | 1008.5 |
| 20260903043905 | 91 | 217 | 0.0 | 0.0 | 0.00 | 0.00 | 0.00 | 33 | 1008.6 |
| 20260903043404 | 92 | 217 | 0.0 | 0.0 | 0.00 | 0.00 | 0.00 | 33 | 1008.5 |
| 20260903042904 | 92 | 216 | 0.0 | 0.0 | 0.00 | 0.00 | 0.00 | 33 | 1008.5 |
| 20260903042405 | 93 | 217 | 0.0 | 0.0 | 0.00 | 0.00 | 0.00 | 32 | 1008.4 |
| 20260903041905 | 93 | 216 | 0.0 | 0.0 | 0.00 | 0.00 | 0.00 | 32 | 1008.4 |
| 20260903041404 | 93 | 217 | 0.0 | 0.0 | 0.00 | 0.00 | 0.00 | 31 | 1008.3 |
| 20260903040904 | 94 | 217 | 0.0 | 0.0 | 0.00 | 0.00 | 0.00 | 31 | 1008.2 |
| 20260903040404 | 94 | 217 | 0.0 | 0.0 | 0.00 | 0.00 | 0.00 | 31 | 1008.2 |
| 20260903035904 | 94 | 217 | 0.0 | 0.0 | 0.00 | 0.00 | 0.00 | 30 | 1008.2 |
| 20260903035404 | 94 | 217 | 0.0 | 0.0 | 0.00 | 0.00 | 0.00 | 30 | 1008.2 |
| 20260903034404 | 94 | 217 | 0.0 | 0.0 | 0.00 | 0.00 | 0.00 | 30 | 1008.1 |
| 20260903033904 | 95 | 217 | 0.0 | 0.0 | 0.00 | 0.00 | 0.00 | 29 | 1008.0 |
| 20260903033404 | 95 | 261 | 0.0 | 0.0 | 0.00 | 0.00 | 0.00 | 29 | 1008.0 |
| 20260903032904 | 95 | 261 | 0.0 | 0.0 | 0.00 | 0.00 | 0.00 | 30 | 1008.0 |
| 20260903031904 | 95 | 261 | 0.0 | 0.0 | 0.00 | 0.00 | 0.00 | 31 | 1007.9 |
| 20260903031404 | 95 | 258 | 0.0 | 0.0 | 0.00 | 0.00 | 0.00 | 31 | 1007.8 |
| 20260903030404 | 95 | 228 | 0.0 | 0.0 | 0.00 | 0.00 | 0.00 | 32 | 1007.8 |
| 20260903025904 | 95 | 226 | 0.0 | 0.0 | 0.00 | 0.00 | 0.00 | 32 | 1007.8 |
| 20260903025404 | 95 | 226 | 0.0 | 0.0 | 0.00 | 0.00 | 0.00 | 32 | 1007.8 |
| 20260903024904 | 95 | 227 | 0.0 | 0.0 | 0.00 | 0.00 | 0.00 | 32 | 1007.7 |
| 20260903023904 | 96 | 228 | 0.0 | 0.0 | 0.00 | 0.00 | 0.00 | 32 | 1007.6 |
| 20260903023404 | 96 | 230 | 0.0 | 0.0 | 0.00 | 0.00 | 0.00 | 32 | 1007.5 |
| 20260903022904 | 96 | 227 | 0.0 | 0.0 | 0.00 | 0.00 | 0.00 | 31 | 1007.6 |
| 20260903022404 | 96 | 220 | 0.0 | 0.0 | 0.00 | 0.00 | 0.00 | 31 | 1007.5 |
| 20260903021904 | 96 | 214 | 0.0 | 0.0 | 0.00 | 0.00 | 0.00 | 31 | 1007.4 |
| 20260903021404 | 96 | 213 | 0.0 | 0.0 | 0.00 | 0.00 | 0.00 | 31 | 1007.4 |
| 20260903020905 | 96 | 213 | 0.0 | 0.0 | 0.00 | 0.00 | 0.00 | 30 | 1007.4 |
| 20260903020404 | 96 | 213 | 0.0 | 0.0 | 0.00 | 0.00 | 0.00 | 30 | 1007.4 |
| 20260903015904 | 96 | 213 | 0.0 | 0.0 | 0.00 | 0.00 | 0.00 | 31 | 1007.4 |
| 20260903015404 | 96 | 213 | 0.0 | 0.0 | 0.00 | 0.00 | 0.00 | 31 | 1007.4 |
| 20260903014904 | 96 | 213 | 0.0 | 0.0 | 0.00 | 0.00 | 0.00 | 31 | 1007.3 |
| 20260903014404 | 96 | 213 | 0.0 | 0.0 | 0.00 | 0.00 | 0.00 | 31 | 1007.3 |
| 20260903013904 | 96 | 213 | 0.0 | 0.0 | 0.00 | 0.00 | 0.00 | 31 | 1007.3 |
| 20260903013404 | 96 | 214 | 0.0 | 0.0 | 0.00 | 0.00 | 0.00 | 30 | 1007.3 |
| 20260903012904 | 96 | 213 | 0.0 | 0.0 | 0.00 | 0.00 | 0.00 | 30 | 1007.3 |
| 20260903012404 | 97 | 213 | 0.0 | 0.0 | 0.00 | 0.00 | 0.00 | 30 | 1007.3 |
| 20260903011905 | 97 | 211 | 0.0 | 0.0 | 0.00 | 0.00 | 0.00 | 30 | 1007.4 |
| 20260903011404 | 97 | 207 | 0.0 | 0.0 | 0.00 | 0.00 | 0.00 | 30 | 1007.4 |